Port Hope, MI

6:10 AM EDT on July 28, 2017 (GMT -0400)
Port Hope

Weather History for KP58 - March, 2014

Change the Weather History Date:

Tuesday, March 18, 2014

  Actual Average Record
Temperature  
Mean Temperature 28 °F -  
Max Temperature 35 °F 36 °F 63 °F (2012)
Min Temperature 21 °F 25 °F 19 °F (2004)
Degree Days  
Heating Degree Days 37    
Moisture  
Dew Point 22 °F    
Average Humidity 75    
Maximum Humidity 82    
Minimum Humidity 65    
Precipitation  
Precipitation 0.00 in - - ()
Sea Level Pressure  
Sea Level Pressure 30.05 in    
Wind  
Wind Speed 10 mph (SE)    
Max Wind Speed 17 mph    
Max Gust Speed -    
Averages and records for this station are not official NWS values.
T = Trace of Precipitation, MM = Missing Value Source: NWS Daily Summary

Daily Weather History Graph

Daily Weather History Graph

Search for Another Location

Airport or City:

Trip Planner

Search our weather history database for the weather conditions in past years. The results will help you decide how hot, cold, wet, or windy it might be!

Date:

Astronomy

Mar. 18, 2014 Rise Set
Actual Time 7:38 AM EDT 7:41 PM EDT
Civil Twilight 7:09 AM EDT 8:09 PM EDT
Nautical Twilight 6:35 AM EDT 8:43 PM EDT
Astronomical Twilight 6:01 AM EDT 9:18 PM EDT
Moon 10:02 PM EDT (3/18) 8:22 AM EDT (3/18)
Length of Visible Light 13h 00m
Length of Day
12h 03m
Waning Gibbous, 96% of the Moon is Illuminated
Mar 18
Waning Gibbous
Mar 23
Last Quarter
Mar 30
New
Apr 7
First Quarter
Apr 15
Full

Hourly Weather History & Observations

Time (EDT) Temp. Windchill Dew Point Humidity Pressure Visibility Wind Dir Wind Speed Gust Speed Precip Events Conditions
12:51 AM 24.1 °F 13.1 °F 14.0 °F 65% 30.03 in - SE 11.5 mph - N/A   Unknown
1:51 AM 23.0 °F 11.7 °F 15.1 °F 72% 30.03 in - SE 11.5 mph - N/A   Unknown
2:51 AM 21.9 °F 13.4 °F 16.0 °F 78% 30.05 in - SSE 6.9 mph - N/A   Unknown
3:51 AM 23.0 °F 14.7 °F 16.0 °F 74% 30.06 in - SE 6.9 mph - N/A   Unknown
4:51 AM 23.0 °F 13.9 °F 17.1 °F 78% 30.04 in - SE 8.1 mph - N/A   Unknown
5:51 AM 23.0 °F 12.4 °F 17.1 °F 78% 30.04 in - SE 10.4 mph - N/A   Unknown
6:51 AM 24.1 °F 14.4 °F 17.1 °F 75% 30.04 in - SE 9.2 mph - N/A   Unknown
7:51 AM 24.1 °F 15.2 °F 18.0 °F 77% 30.06 in - SE 8.1 mph - N/A   Unknown
8:51 AM 24.1 °F 16.0 °F 19.0 °F 81% 30.07 in - SE 6.9 mph - N/A   Unknown
9:51 AM 27.0 °F 19.5 °F 19.9 °F 75% 30.06 in - SSE 6.9 mph - N/A   Unknown
10:51 AM 28.9 °F 19.8 °F 19.9 °F 69% 30.07 in - SSE 10.4 mph - N/A   Unknown
11:51 AM 32.0 °F 24.8 °F 21.9 °F 66% 30.07 in - SE 8.1 mph - N/A   Unknown
12:51 PM 34.0 °F 26.6 °F 24.1 °F 67% 30.08 in - SE 9.2 mph - N/A   Unknown
1:51 PM 33.1 °F 23.4 °F 26.1 °F 75% 30.08 in - ESE 13.8 mph - N/A   Unknown
2:51 PM 33.1 °F 22.2 °F 27.0 °F 78% 30.07 in - ESE 17.3 mph - N/A   Unknown
3:51 PM 33.1 °F 23.4 °F 26.1 °F 75% 30.07 in - ESE 13.8 mph - N/A   Unknown
4:51 PM 35.1 °F 26.9 °F 26.1 °F 70% 30.08 in - SE 11.5 mph - N/A   Unknown
5:51 PM 34.0 °F 28.0 °F 27.0 °F 75% 30.07 in - SE 6.9 mph - N/A   Unknown
6:51 PM 33.1 °F 24.9 °F 28.0 °F 82% 30.04 in - ESE 10.4 mph - N/A   Unknown
7:51 PM 33.1 °F 23.0 °F 27.0 °F 78% 30.03 in - ESE 15.0 mph - N/A   Unknown
8:51 PM 33.1 °F 23.9 °F 28.0 °F 82% 30.02 in - SE 12.7 mph - N/A   Unknown
9:51 PM 33.1 °F 23.9 °F 28.0 °F 82% 30.01 in - SE 12.7 mph - N/A   Unknown
10:51 PM 32.0 °F 22.5 °F 27.0 °F 82% 29.98 in - SE 12.7 mph - N/A   Unknown
11:51 PM 33.1 °F 23.0 °F 27.0 °F 78% 29.95 in - SE 15.0 mph - N/A   Unknown